�������l�o���
Date,Time,MP-1(��Sv/h),MP-2(��Sv/h),MP-3(��Sv/h),MP-4(��Sv/h),MP-5(��Sv/h),MP-6(��Sv/h),MP-7(��Sv/h),MP-8(��Sv/h),����,����(m/s),���J
2014/09/16,00:00,2.132,3.858,4.247,3.752,4.003,1.480,2.062,2.290,��쐼,1.8,��
2014/09/16,00:10,2.133,3.860,4.243,3.752,4.008,1.480,2.063,2.293,��쐼,2.3,��
2014/09/16,00:20,2.133,3.862,4.247,3.752,4.008,1.480,2.060,2.295,��쐼,2.9,��
2014/09/16,00:30,2.132,3.860,4.248,3.755,4.008,1.478,2.057,2.292,��,3.3,��
2014/09/16,00:40,2.137,3.860,4.245,3.750,4.010,1.478,2.062,2.292,��,3.5,��
2014/09/16,00:50,2.135,3.863,4.242,3.752,4.005,1.475,2.062,2.292,��,3.4,��
2014/09/16,01:00,2.135,3.860,4.245,3.750,4.005,1.477,2.062,2.293,��쐼,3.4,��
2014/09/16,01:10,2.137,3.858,4.243,3.750,4.007,1.480,2.063,2.292,��,3.1,��
2014/09/16,01:20,2.132,3.860,4.242,3.753,4.005,1.480,2.058,2.293,��,3.6,��
2014/09/16,01:30,2.130,3.858,4.243,3.753,4.007,1.475,2.063,2.295,��,4.1,��
2014/09/16,01:40,2.132,3.858,4.248,3.747,4.003,1.478,2.062,2.293,��,4.3,��
2014/09/16,01:50,2.130,3.858,4.250,3.750,4.005,1.480,2.060,2.292,��쐼,3.6,��
2014/09/16,02:00,2.135,3.860,4.250,3.753,4.007,1.480,2.062,2.293,��쐼,3.4,��
2014/09/16,02:10,2.133,3.858,4.247,3.752,4.008,1.480,2.060,2.292,��쐼,3.3,��
2014/09/16,02:20,2.133,3.862,4.243,3.752,4.003,1.480,2.062,2.293,��쐼,2.9,��
2014/09/16,02:30,2.133,3.860,4.242,3.750,4.002,1.478,2.062,2.293,��쐼,3.6,��
2014/09/16,02:40,2.130,3.860,4.247,3.753,4.007,1.478,2.060,2.292,�쐼,3.6,��
2014/09/16,02:50,2.135,3.863,4.243,3.755,4.005,1.480,2.060,2.292,�쐼,2.3,��
2014/09/16,03:00,2.135,3.862,4.242,3.755,4.000,1.482,2.062,2.293,��,1.6,��
2014/09/16,03:10,2.137,3.862,4.240,3.753,4.003,1.480,2.060,2.295,�k�k��,1.3,��
2014/09/16,03:20,2.135,3.860,4.245,3.752,4.003,1.478,2.060,2.293,�k�k��,1.3,��
2014/09/16,03:30,2.135,3.860,4.243,3.752,4.005,1.477,2.062,2.295,�k�k��,0.5,��
2014/09/16,03:40,2.137,3.862,4.245,3.755,4.005,1.477,2.062,2.297,-,CALM,��
2014/09/16,03:50,2.133,3.860,4.247,3.752,4.003,1.480,2.060,2.293,��쓌,0.6,��
2014/09/16,04:00,2.133,3.858,4.240,3.748,4.002,1.475,2.058,2.295,��쓌,1.1,��
2014/09/16,04:10,2.133,3.860,4.243,3.750,4.002,1.477,2.060,2.293,��쓌,0.9,��
2014/09/16,04:20,2.135,3.858,4.245,3.757,3.993,1.480,2.058,2.295,��쓌,0.5,��
2014/09/16,04:30,2.132,3.862,4.243,3.747,3.997,1.478,2.060,2.292,-,CALM,��
2014/09/16,04:40,2.135,3.857,4.242,3.752,4.000,1.478,2.058,2.293,-,CALM,��
2014/09/16,04:50,2.137,3.857,4.238,3.747,3.998,1.480,2.060,2.297,-,CALM,��
2014/09/16,05:00,2.133,3.858,4.238,3.747,4.002,1.475,2.060,2.293,�k�k��,1.5,��
2014/09/16,05:10,2.133,3.860,4.240,3.750,3.997,1.477,2.060,2.292,-,CALM,��
2014/09/16,05:20,2.135,3.862,4.237,3.752,3.997,1.478,2.060,2.292,�k��,0.8,��
2014/09/16,05:30,2.135,3.860,4.240,3.748,3.995,1.477,2.062,2.292,-,CALM,��
2014/09/16,05:40,2.132,3.862,4.242,3.752,3.995,1.477,2.060,2.293,-,CALM,��
2014/09/16,05:50,2.133,3.858,4.243,3.753,3.993,1.477,2.062,2.290,��,0.7,�L
2014/09/16,06:00,2.133,3.862,4.243,3.757,4.003,1.478,2.057,2.292,��쐼,1.0,��
2014/09/16,06:10,2.135,3.862,4.243,3.752,4.003,1.475,2.060,2.292,��,1.2,��
2014/09/16,06:20,2.135,3.860,4.245,3.750,4.002,1.468,2.060,2.293,��,1.8,��
2014/09/16,06:30,2.132,3.860,4.243,3.750,4.002,1.457,2.060,2.293,��쓌,1.8,��
2014/09/16,06:40,2.130,3.862,4.248,3.752,4.000,1.447,2.063,2.293,��쓌,1.3,��
2014/09/16,06:50,2.133,3.858,4.240,3.752,3.995,1.433,2.060,2.292,��쓌,2.0,��
2014/09/16,07:00,2.132,3.860,4.242,3.748,3.997,1.413,2.060,2.290,��쐼,1.4,��
2014/09/16,07:10,2.133,3.855,4.245,3.750,3.998,1.408,2.058,2.293,��,1.1,��
2014/09/16,07:20,2.133,3.862,4.242,3.748,4.000,1.403,2.060,2.295,��,0.6,��
2014/09/16,07:30,2.135,3.860,4.238,3.750,4.000,1.403,2.060,2.292,-,CALM,��
2014/09/16,07:40,2.135,3.857,4.242,3.748,4.002,1.402,2.062,2.293,-,CALM,��
2014/09/16,07:50,2.135,3.862,4.247,3.752,4.002,1.405,2.062,2.293,�쓌,0.6,��
2014/09/16,08:00,2.135,3.863,4.247,3.757,4.005,1.403,2.063,2.295,�k�k��,0.6,��
2014/09/16,08:10,2.135,3.868,4.250,3.755,4.008,1.403,2.062,2.295,���k��,0.7,��
2014/09/16,08:20,2.137,3.870,4.257,3.758,4.013,1.405,2.062,2.293,�k��,0.5,��
2014/09/16,08:30,2.133,3.870,4.260,3.762,4.020,1.407,2.065,2.293,�k��,1.1,��
2014/09/16,08:40,2.140,3.878,4.260,3.760,4.020,1.408,2.065,2.295,�k��,1.3,��
2014/09/16,08:50,2.140,3.877,4.260,3.758,4.023,1.408,2.067,2.295,�k��,1.7,��
2014/09/16,09:00,2.143,3.877,4.258,3.760,4.027,1.408,2.067,2.300,�k��,3.1,��
2014/09/16,09:10,2.140,3.880,4.257,3.760,4.023,1.407,2.068,2.298,�k��,3.0,��
2014/09/16,09:20,2.137,3.885,4.267,3.765,4.025,1.407,2.065,2.298,�k�k��,3.8,��
2014/09/16,09:30,2.137,3.887,4.270,3.763,4.028,1.408,2.068,2.300,�k��,4.2,��
2014/09/16,09:40,2.140,3.887,4.272,3.762,4.030,1.408,2.065,2.295,�k�k��,4.1,��
2014/09/16,09:50,2.142,3.888,4.278,3.765,4.035,1.408,2.065,2.297,�k��,4.1,��
2014/09/16,10:00,2.143,3.890,4.275,3.763,4.037,1.408,2.068,2.298,�k��,3.9,��
2014/09/16,10:10,2.138,3.890,4.273,3.762,4.040,1.412,2.067,2.295,�k�k��,4.1,��
2014/09/16,10:20,2.143,3.885,4.277,3.767,4.042,1.412,2.070,2.297,�k�k��,3.6,��
2014/09/16,10:30,2.143,3.895,4.273,3.767,4.038,1.413,2.072,2.298,�k��,3.4,��
2014/09/16,10:40,2.140,3.892,4.275,3.763,4.040,1.410,2.068,2.297,�k�k��,4.4,��
2014/09/16,10:50,2.138,3.893,4.280,3.765,4.042,1.410,2.068,2.302,�k�k��,4.4,��
2014/09/16,11:00,2.143,3.895,4.275,-,4.043,1.410,2.070,2.300,�k��,4.8,��
2014/09/16,11:10,2.142,3.902,4.285,-,4.042,1.415,2.072,2.298,�k��,4.3,��
2014/09/16,11:20,2.142,3.898,4.283,3.765,4.042,1.412,2.070,2.297,�k��,4.7,��
2014/09/16,11:30,2.142,3.893,4.280,3.768,4.035,1.415,2.073,2.298,�k��,3.7,��
2014/09/16,11:40,2.147,3.892,4.283,3.767,4.032,1.413,2.072,2.297,�k��,3.8,��
2014/09/16,11:50,2.140,3.893,4.280,3.760,-,1.408,2.072,2.298,���k��,3.0,��
2014/09/16,12:00,2.143,3.897,4.280,3.768,-,1.415,2.072,2.298,�k�k��,3.4,��
2014/09/16,12:10,2.145,3.900,4.287,3.772,4.035,1.417,2.075,2.302,���k��,3.5,��
2014/09/16,12:20,2.145,3.905,4.290,3.768,4.042,1.417,2.075,2.302,�k��,2.8,��
2014/09/16,12:30,2.147,3.903,4.288,3.768,4.047,1.418,2.073,2.300,���k��,3.3,��
2014/09/16,12:40,2.147,3.903,4.292,3.770,4.048,1.423,2.072,2.298,���k��,2.2,��
2014/09/16,12:50,2.145,3.898,4.288,3.770,4.048,1.425,2.075,2.302,���k��,2.7,��
2014/09/16,13:00,2.145,3.898,4.288,3.765,4.052,1.428,2.072,2.298,�k��,2.4,��
2014/09/16,13:10,2.137,3.845,4.215,3.722,3.995,1.422,2.070,2.297,���쓌,5.6,�L
2014/09/16,13:20,2.093,3.693,4.085,3.613,3.827,1.383,2.037,2.272,���쓌,8.6,�L
2014/09/16,13:30,-,3.637,4.043,3.580,3.755,1.370,2.000,2.247,���쓌,2.3,�L
2014/09/16,13:40,-,3.660,4.065,3.598,3.787,1.383,2.010,2.252,�쓌,0.9,�L
2014/09/16,13:50,-,3.677,4.073,3.613,3.807,1.397,2.015,2.252,�k��,2.3,�L
2014/09/16,14:00,2.102,3.688,4.078,3.622,3.823,1.407,2.018,2.255,�k�k��,2.0,�L
2014/09/16,14:10,2.085,3.698,4.088,3.627,3.832,1.417,2.022,2.258,�k��,2.2,��
2014/09/16,14:20,2.088,-,4.102,3.628,3.840,1.425,2.025,2.257,���k��,1.1,��
2014/09/16,14:30,2.090,-,4.103,3.638,3.850,1.432,2.027,2.257,���쐼,1.4,��
2014/09/16,14:40,2.092,3.720,4.108,3.645,3.857,1.435,2.028,2.260,��쐼,1.6,��
2014/09/16,14:50,2.090,3.727,4.108,3.645,3.855,1.435,2.027,2.258,��쐼,2.6,��
2014/09/16,15:00,2.087,3.725,4.110,3.647,3.863,1.437,2.027,2.260,��쐼,2.2,��
2014/09/16,15:10,2.088,3.732,4.113,3.653,3.870,1.438,2.032,2.262,��쐼,2.7,��
2014/09/16,15:20,2.092,3.735,4.118,3.653,3.870,1.440,2.033,2.260,��쐼,2.3,��
2014/09/16,15:30,2.090,3.737,4.122,3.652,3.873,1.442,2.033,2.258,��쐼,2.8,��
2014/09/16,15:40,2.090,3.738,4.127,3.655,3.877,1.440,2.037,2.260,��쐼,3.3,��
2014/09/16,15:50,2.088,3.742,4.123,3.657,3.878,1.445,2.030,2.257,��쐼,3.2,��
2014/09/16,16:00,2.092,3.745,4.125,3.657,3.880,1.443,2.033,2.260,��,4.0,��
2014/09/16,16:10,2.093,3.742,4.125,3.655,3.872,1.447,2.032,2.262,��,4.1,��
2014/09/16,16:20,2.090,3.740,4.130,3.658,3.878,1.447,2.032,2.263,��쓌,4.6,��
2014/09/16,16:30,2.092,3.743,4.127,3.657,3.885,1.445,2.032,2.265,��,4.2,��
2014/09/16,16:40,2.093,3.745,4.127,3.658,3.890,1.447,2.035,2.263,��,4.3,��
2014/09/16,16:50,2.093,3.748,4.132,3.663,3.887,1.448,2.038,2.258,��,5.2,��
2014/09/16,17:00,2.095,3.748,4.125,3.658,3.885,1.445,2.037,2.260,��쐼,4.8,��
2014/09/16,17:10,2.092,3.752,4.125,3.660,3.892,1.447,2.037,2.265,��쐼,5.4,��
2014/09/16,17:20,2.093,3.752,4.127,3.662,3.892,1.445,2.035,2.267,��쐼,3.9,��
2014/09/16,17:30,2.095,3.750,4.132,3.665,3.890,1.445,2.035,2.265,��쐼,4.4,��
2014/09/16,17:40,2.093,3.748,4.132,3.663,3.893,1.447,2.038,2.263,��쐼,3.5,��
2014/09/16,17:50,2.097,3.750,4.128,3.667,3.888,1.448,2.035,2.265,��쐼,3.1,��
2014/09/16,18:00,2.097,3.753,4.128,3.667,3.888,1.447,2.033,2.263,��쐼,3.1,��
2014/09/16,18:10,2.095,3.745,4.125,3.660,3.888,1.448,2.035,2.265,��쐼,2.3,��
2014/09/16,18:20,2.093,3.752,4.128,3.660,3.888,1.447,2.035,2.263,��쐼,1.5,��
2014/09/16,18:30,2.093,3.753,4.128,3.662,3.887,1.447,2.037,2.263,��,1.9,��
2014/09/16,18:40,2.093,3.753,4.128,3.658,3.887,1.447,2.035,2.263,���k��,2.0,��
2014/09/16,18:50,2.093,3.753,4.128,3.662,3.887,1.448,2.037,2.267,���k��,3.3,��
2014/09/16,19:00,2.090,3.753,4.127,3.665,3.888,1.445,2.037,2.267,���k��,4.0,��
2014/09/16,19:10,2.093,3.752,4.127,3.665,3.888,1.448,2.037,2.267,���k��,3.4,��
2014/09/16,19:20,2.093,3.753,4.125,3.667,3.888,1.448,2.035,2.265,�k��,2.5,��
2014/09/16,19:30,2.093,3.748,4.128,3.665,3.888,1.450,2.035,2.267,���k��,4.1,��
2014/09/16,19:40,2.095,3.752,4.127,3.667,3.890,1.445,2.037,2.267,�k��,2.5,��
2014/09/16,19:50,2.092,3.752,4.130,3.668,3.887,1.445,2.038,2.267,���k��,3.0,��
2014/09/16,20:00,2.093,3.752,4.130,3.665,3.883,1.443,2.037,2.268,���k��,3.6,��
2014/09/16,20:10,2.093,3.758,4.132,3.665,3.887,1.447,2.037,2.263,���k��,3.7,��
2014/09/16,20:20,2.095,3.760,4.125,3.663,3.883,1.448,2.037,2.265,���k��,4.3,��
2014/09/16,20:30,2.095,3.758,4.128,3.667,3.887,1.448,2.037,2.267,�k��,4.4,��
2014/09/16,20:40,2.097,3.753,4.132,3.672,3.887,1.448,2.037,2.265,�k��,3.7,��
2014/09/16,20:50,2.097,3.752,4.127,3.672,3.885,1.447,2.033,2.267,�k��,3.6,��
2014/09/16,21:00,2.097,3.757,4.127,3.673,3.887,1.445,2.037,2.267,�k��,4.1,��
2014/09/16,21:10,2.097,3.755,4.127,3.672,3.890,1.448,2.033,2.268,�k�k��,3.2,��
2014/09/16,21:20,2.095,3.753,4.127,3.667,3.890,1.447,2.037,2.268,�k��,4.4,��
2014/09/16,21:30,2.095,3.757,4.123,3.668,3.885,1.448,2.035,2.265,�k�k��,4.0,��
2014/09/16,21:40,2.093,3.752,4.125,3.673,3.888,1.447,2.033,2.268,�k��,4.3,��
2014/09/16,21:50,2.093,3.755,4.125,3.672,3.890,1.445,2.035,2.268,�k�k��,3.5,��
2014/09/16,22:00,2.097,3.755,4.123,3.667,3.893,1.447,2.037,2.268,�k�k��,4.3,��
2014/09/16,22:10,2.098,3.757,4.125,3.665,3.883,1.448,2.037,2.268,�k��,4.8,��
2014/09/16,22:20,2.098,3.753,4.128,3.670,3.883,1.448,2.037,2.268,�k��,5.4,��
2014/09/16,22:30,2.097,3.757,4.125,3.672,3.887,1.447,2.037,2.267,�k�k��,4.8,��
2014/09/16,22:40,2.097,3.753,4.123,3.670,3.892,1.447,2.037,2.265,�k��,5.3,��
2014/09/16,22:50,2.097,3.755,4.122,3.673,3.888,1.445,2.038,2.270,�k�k��,4.3,��
2014/09/16,23:00,2.095,3.757,4.122,3.670,3.887,1.450,2.033,2.263,�k��,5.0,��
2014/09/16,23:10,2.098,3.753,4.122,3.672,3.888,1.448,2.035,2.267,�k�k��,4.0,��
2014/09/16,23:20,2.095,3.753,4.123,3.670,3.892,1.447,2.033,2.270,�k��,4.5,��
2014/09/16,23:30,2.092,3.757,4.123,3.675,3.890,1.445,2.033,2.268,�k�k��,3.5,��
2014/09/16,23:40,2.097,3.758,4.122,3.672,3.893,1.443,2.032,2.268,�k�k��,3.5,��
2014/09/16,23:50,2.093,3.757,4.128,3.672,3.890,1.447,2.037,2.270,�k�k��,3.7,��
